User: anonymous   Login
Location: *
(47.2969°N, 10.2930°E)
Time: 02:15:03
(UTC+00:00)
Language:

STARLINK-1222 - Orbit

View from above orbital plane
View from above orbital plane
View from above satellite
View from above satellite

Ground track
Ground track

The orbit data is extracted from the following two-line orbital elements,

1 45228U 20012BC  20192.58334491 -.00007144 +00000-0 -47186-3 0  9994
2 45228 052.9988 290.7099 0001111 088.6004 075.7604 15.05563498001804
Epoch (UTC): 10 July 2020 14:00:01
Eccentricity: 0.0001111
inclination: 52.9988°
perigee height: 549 km
apogee height: 550 km
right ascension of ascending node: 290.7099°
argument of perigee: 88.6004°
revolutions per day: 15.05563498
mean anomaly at epoch: 75.7604°
orbit number at epoch: 180

The dashed part of the orbit path shows where the satellite is in the earth's shadow,  

DLR